OPTUS C1

Last updated on Oct. 1, 2020, 5:42 a.m. UTC

1 27831U 03028B   20274.81976500 -.00000161  00000-0  00000+0 0  9993
2 27831   1.6657  93.1753 0006349  92.6829 275.0050  1.00273830 63411
UTC
Height (km)
Latitude
Longitude
Inclination
Orbital Period
UTC large
Height (km)
Speed (km/s)
/
Latitude / Longitude
Inclination (degrees)
Orbital Period (minutes)
Azimuth
Elevation
Range (km)
Doppler Factor
iOS Compass Heading
iOS Angle

Next 30 passes for location: Hong Kong

Rise time Rise Azimuth (degrees) Set time Set Azimuth (degrees) Duration Max altitude (degrees)

No matching passes for this satellites